"2010-03-11 00:00:00",1751319,6.276,61.76,6.324,1.178,4.296,100.1359,-0.353,0.939,79.93,0,109.6,13.59,0.40,23.8
"2010-03-11 00:00:30",1751320,6.104,63.5,5.898,1.189,3.853,100.1359,-0.353,0.882,79.78,0,109.6,13.59,0.40,25.5
"2010-03-11 00:01:00",1751321,5.839,62.56,6.072,1.188,3.781,100.1359,-0.353,0.943,79.78,0,109.6,13.6,0.40,24.6
"2010-03-11 00:01:30",1751322,6.452,67.17,4.945,0.849,4.706,100.1359,-0.353,0.933,79.78,0,109.6,13.6,0.40,29.2
"2010-03-11 00:02:00",1751323,6.518,67.52,5.481,1.084,4.784,100.1356,-0.354,0.911,79.79,0,109.6,13.6,0.40,29.5
"2010-03-11 00:02:30",1751324,6.285,68.21,6.317,1.439,3.669,100.1359,-0.353,0.917,79.87,0,109.6,13.6,0.40,30.2
"2010-03-11 00:03:00",1751325,6.858,71.76,5.098,1.055,4.161,100.133,-0.36,0.917,79.97,0,109.6,13.6,0.39,33.8
"2010-03-11 00:03:30",1751326,6.915,70.02,5.869,1.23,4.233,100.1277,-0.374,0.958,80.1,0,109.6,13.6,0.38,32.0
"2010-03-11 00:04:00",1751327,6.811,65.33,5.527,1.286,3.743,100.1197,-0.394,0.908,80.2,0,109.6,13.6,0.36,27.3
"2010-03-11 00:04:30",1751328,7.568,68.42,5.193,0.87,5.387,100.1166,-0.402,0.947,80.3,0,109.6,13.6,0.35,30.4
"2010-03-11 00:05:00",1751329,7.644,74.02,6.234,1.094,4.487,100.1107,-0.417,0.882,80.3,0,109.6,13.6,0.33,36.0
"2010-03-11 00:05:30",1751330,7.493,73.51,6.889,1.318,4.031,100.1025,-0.438,0.903,80.3,0,109.6,13.6,0.31,35.5
"2010-03-11 00:06:00",1751331,7.775,75.22,4.775,1.059,4.306,100.1019,-0.44,0.874,80.4,0,109.6,13.6,0.31,37.2
"2010-03-11 00:06:30",1751332,8.3,75.62,4.055,0.621,5.241,100.1019,-0.44,0.934,80.5,0,109.5,13.6,0.31,37.6
"2010-03-11 00:07:00",1751333,8.05,74.04,3.721,0.702,5.087,100.0889,-0.473,0.923,80.6,0,109.6,13.6,0.28,36.0
"2010-03-11 00:07:30",1751334,8.14,73.33,4.422,0.687,5.036,100.0764,-0.505,0.93,80.7,0,109.6,13.59,0.25,35.3
"2010-03-11 00:08:00",1751335,7.844,75.16,4.813,0.65,4.769,100.0682,-0.526,0.898,80.7,0,109.6,13.59,0.22,37.2
"2010-03-11 00:08:30",1751336,7.776,74.58,3.967,0.778,4.715,100.0679,-0.526,0.885,80.8,0,109.6,13.59,0.22,36.6
"2010-03-11 00:09:00",1751337,7.743,79.61,3.717,0.727,4.74,100.0679,-0.526,0.874,80.9,0,109.6,13.59,0.22,41.6
"2010-03-11 00:09:30",1751338,7.501,73.31,2.356,0.827,4.255,100.0603,-0.546,0.857,80.9,0,109.6,13.59,0.20,35.3
"2010-03-11 00:10:00",1751339,7.67,73.39,3.807,0.58,4.477,100.0473,-0.579,0.832,80.9,0,109.6,13.59,0.17,35.4
"2010-03-11 00:10:30",1751340,5.824,67.6,4.483,0.954,1.2,100.0393,-0.599,0.67,80.8,0,109.6,13.59,0.15,29.6
"2010-03-11 00:11:00",1751341,5.929,69.15,5.107,1.046,2.123,100.034,-0.613,0.668,80.8,0,109.6,13.59,0.14,31.2
"2010-03-11 00:11:30",1751342,5.014,63.02,3.058,0.875,1.983,100.034,-0.613,0.672,80.9,0,109.6,13.59,0.14,25.0
"2010-03-11 00:12:00",1751343,6.439,70.18,3.323,0.73,5.325,100.0337,-0.614,0.786,81.1,0,109.6,13.59,0.14,32.2
"2010-03-11 00:12:30",1751344,6.478,69.22,4.132,0.666,5.683,100.028,-0.628,0.775,81.1,0,109.6,13.6,0.12,31.2
"2010-03-11 00:13:00",1751345,6.168,69.45,3.234,0.775,5.267,100.0164,-0.658,0.773,81.1,0,109.6,13.6,0.09,31.4
"2010-03-11 00:13:30",1751346,6.317,70.48,5.216,0.803,4.297,100.0062,-0.684,0.647,81,0,109.6,13.6,0.07,32.5
"2010-03-11 00:14:00",1751347,5.091,66.65,6.013,0.957,1.882,100.0003,-0.699,0.585,81,0,109.6,13.6,0.05,28.7
"2010-03-11 00:14:30",1751348,5.142,66.54,6.219,1.038,1.743,100.0008,-0.697,0.51,81,0,109.6,13.6,0.05,28.5
"2010-03-11 00:15:00",1751349,6.815,70.97,4.551,0.861,4.919,100.0006,-0.698,0.661,81.2,0,109.6,13.6,0.05,33.0
"2010-03-11 00:15:30",1751350,6.972,70.12,5.371,0.916,5.358,100.0008,-0.697,0.685,81.2,0,109.6,13.6,0.05,32.1
"2010-03-11 00:16:00",1751351,7.72,70.27,4.705,0.776,5.556,100,-0.7,0.704,81.3,0,109.6,13.6,0.05,32.3
"2010-03-11 00:16:30",1751352,7.661,70.79,4.145,0.716,5.542,100.0014,-0.696,0.719,81.3,0,109.6,13.6,0.05,32.8
"2010-03-11 00:17:00",1751353,7.638,68.69,3.635,0.7,5.439,100.0014,-0.696,0.703,81.3,0,109.6,13.6,0.05,30.7
"2010-03-11 00:17:30",1751354,7.727,69.8,3.483,0.719,4.877,99.99943,-0.701,0.673,81.3,0,109.6,13.6,0.05,31.8
"2010-03-11 00:18:00",1751355,7.26,71.84,3.534,0.753,4.806,99.9932,-0.717,0.696,81.3,0,109.6,13.6,0.03,33.8
"2010-03-11 00:18:30",1751356,7.426,73.09,4.823,0.79,4.533,99.98528,-0.737,0.68,81.3,0,109.6,13.6,0.01,35.1
"2010-03-11 00:19:00",1751357,7.055,70.15,5.174,0.484,4.444,99.97961,-0.752,0.659,81.3,0,109.6,13.6,-0.00,32.2
"2010-03-11 00:19:30",1751358,8.09,67.93,1.646,0.598,4.416,99.97707,-0.758,0.61,81.2,0,109.6,13.6,-0.01,29.9
"2010-03-11 00:20:00",1751359,6.932,61.56,4.985,1.297,3.158,99.97311,-0.768,0.528,81,0,109.6,13.6,-0.02,23.6
"2010-03-11 00:20:30",1751360,6.266,57.64,6.045,0.994,2.275,99.97311,-0.768,0.452,80.8,0,109.6,13.6,-0.02,19.6
"2010-03-11 00:21:00",1751361,6.706,58.95,5.405,1.14,3.113,99.97396,-0.766,0.523,80.7,0,109.6,13.6,-0.02,21.0
"2010-03-11 00:21:30",1751362,7.493,65.5,2.318,0.643,5.599,99.97509,-0.763,0.617,80.5,0,109.6,13.6,-0.01,27.5
"2010-03-11 00:22:00",1751363,7.68,66.96,4.035,0.692,6.035,99.97678,-0.759,0.613,80.2,0,109.6,13.61,-0.01,29.0
"2010-03-11 00:22:30",1751364,7.635,70.24,3.448,0.645,5.855,99.9782,-0.755,0.619,79.86,0,109.6,13.6,-0.01,32.2
"2010-03-11 00:23:00",1751365,7.198,71.06,4.888,0.872,5.102,99.97707,-0.758,0.549,79.49,0,109.6,13.6,-0.01,33.1
"2010-03-11 00:23:30",1751366,7.107,72.12,4.781,0.898,4.65,99.97849,-0.754,0.566,79.2,0,109.5,13.6,-0.01,34.1
"2010-03-11 00:24:00",1751367,5.846,69.48,6.986,1.08,2.602,99.97849,-0.754,0.453,78.8,0,109.6,13.6,-0.01,31.5
"2010-03-11 00:24:30",1751368,6.713,70.04,5.063,1.346,2.304,99.97792,-0.756,0.409,78.54,0,109.6,13.6,-0.01,32.0
"2010-03-11 00:25:00",1751369,7.54,69.2,4.718,1.057,4.326,99.98839,-0.729,0.498,78.24,0,109.6,13.6,0.02,31.2
"2010-03-11 00:25:30",1751370,7.793,65.93,5.206,0.509,6.049,99.99688,-0.708,0.603,77.87,0,109.6,13.6,0.04,27.9
"2010-03-11 00:26:00",1751371,7.304,70.63,3.16,0.757,5.683,100.0065,-0.683,0.608,77.53,0,109.6,13.6,0.07,32.6
"2010-03-11 00:26:30",1751372,7.276,73.18,3.413,0.631,5.659,100.0178,-0.654,0.613,77.51,0,109.5,13.6,0.10,35.2
"2010-03-11 00:27:00",1751373,7.606,75.07,3.769,0.369,5.189,100.0195,-0.65,0.606,77.59,0,109.5,13.6,0.10,37.1
"2010-03-11 00:27:30",1751374,6.409,70.9,5.454,1.183,3.056,100.0195,-0.65,0.541,77.67,0,109.5,13.6,0.10,32.9
"2010-03-11 00:28:00",1751375,6.257,67.91,5.328,1.189,2.694,100.0198,-0.649,0.458,77.67,0,109.5,13.6,0.10,29.9
"2010-03-11 00:28:30",1751376,6.082,69.38,6.336,1.113,2.621,100.0198,-0.649,0.561,77.81,0,109.6,13.6,0.10,31.4
"2010-03-11 00:29:00",1751377,7.785,76.97,4.12,0.847,5.849,100.0227,-0.642,0.679,77.85,0,109.5,13.6,0.11,39.0
"2010-03-11 00:29:30",1751378,7.876,75.13,4.11,0.314,6.169,100.0232,-0.64,0.657,77.79,0,109.5,13.61,0.11,37.1
"2010-03-11 00:30:00",1751379,7.62,76.33,4.308,0.533,5.75,100.0232,-0.64,0.664,77.75,0,109.6,13.61,0.11,38.3
"2010-03-11 00:30:30",1751380,7.299,81.6,4.456,0.536,5.387,100.0241,-0.638,0.667,77.75,0,109.5,13.61,0.11,43.6
"2010-03-11 00:31:00",1751381,7.583,79.62,4.312,0.486,5.033,100.0249,-0.636,0.689,77.74,0,109.5,13.6,0.11,41.6
"2010-03-11 00:31:30",1751382,8,79.2,3.965,0.539,5.057,100.0263,-0.632,0.682,77.76,0,109.6,13.6,0.12,41.2
"2010-03-11 00:32:00",1751383,7.447,78.64,4.38,1.036,4.187,100.0286,-0.627,0.689,77.79,0,109.5,13.6,0.12,40.6
"2010-03-11 00:32:30",1751384,7.73,80.4,6.563,0.978,4.151,100.0334,-0.614,0.636,77.83,0,109.5,13.6,0.14,42.4
"2010-03-11 00:33:00",1751385,7.397,81.1,5.361,1.04,3.156,100.034,-0.613,0.537,77.86,0,109.5,13.6,0.14,43.1
"2010-03-11 00:33:30",1751386,6.883,83.2,6.535,1.215,3.341,100.0402,-0.597,0.601,78.06,0,109.5,13.61,0.15,45.2
"2010-03-11 00:34:00",1751387,7.11,90.6,5.967,1.103,4.416,100.041,-0.595,0.64,78.17,0,109.5,13.61,0.15,52.6
"2010-03-11 00:34:30",1751388,7.571,82.2,5.204,0.57,5.399,100.0388,-0.601,0.709,78.34,0,109.5,13.61,0.15,44.2
"2010-03-11 00:35:00",1751389,7.054,82.8,2.733,0.679,5.312,100.0402,-0.597,0.717,78.42,0,109.5,13.61,0.15,44.8
"2010-03-11 00:35:30",1751390,6.372,81.8,4.515,0.828,4.643,100.0394,-0.599,0.665,78.47,0,109.5,13.61,0.15,43.8
"2010-03-11 00:36:00",1751391,5.506,79.94,6.549,1.181,3.518,100.0382,-0.602,0.613,78.55,0,109.5,13.61,0.15,41.9
"2010-03-11 00:36:30",1751392,5.022,81,5.846,1.039,1.863,100.0416,-0.593,0.588,78.63,0,109.5,13.61,0.16,43.0
"2010-03-11 00:37:00",1751393,6.165,84,6.049,1.14,3.553,100.0394,-0.599,0.516,78.69,0,109.6,13.61,0.15,46.0
"2010-03-11 00:37:30",1751394,7.161,85.5,5.395,0.68,5.435,100.0382,-0.602,0.721,79.05,0,109.5,13.61,0.15,47.5
"2010-03-11 00:38:00",1751395,7.502,91,6.163,0.79,5.526,100.0388,-0.601,0.733,79.2,0,109.5,13.61,0.15,53.0
"2010-03-11 00:38:30",1751396,7.406,81.7,5.08,0.777,5.428,100.0343,-0.612,0.726,79.39,0,109.5,13.61,0.14,43.7
"2010-03-11 00:39:00",1751397,8.75,84.7,5.95,0.851,4.968,100.0272,-0.63,0.72,79.65,0,109.5,13.61,0.12,46.7
"2010-03-11 00:39:30",1751398,9.3,84.2,4.039,0.726,4.98,100.0258,-0.634,0.703,79.67,0,109.5,13.61,0.12,46.2
"2010-03-11 00:40:00",1751399,9,86.6,3.571,0.569,4.988,100.026,-0.633,0.692,79.47,0,109.5,13.6,0.12,48.6
"2010-03-11 00:40:30",1751400,8.8,82.4,3.307,0.65,4.515,100.0258,-0.634,0.695,79.15,0,109.5,13.6,0.12,44.4
"2010-03-11 00:41:00",1751401,9.86,84.2,3.811,0.634,4.697,100.0266,-0.632,0.683,78.89,0,109.5,13.6,0.12,46.2
"2010-03-11 00:41:30",1751402,9.94,82.5,3.572,0.932,4.431,100.0246,-0.637,0.66,78.72,0,109.5,13.6,0.11,44.5
"2010-03-11 00:42:00",1751403,10.01,80.7,4.786,0.668,4.495,100.0125,-0.668,0.667,78.61,0,109.5,13.6,0.08,42.7
"2010-03-11 00:42:30",1751404,10.15,78.29,4.317,0.714,4.65,99.99802,-0.705,0.65,78.5,0,109.5,13.6,0.04,40.3
"2010-03-11 00:43:00",1751405,10.38,82.6,3.13,0.781,4.731,99.99434,-0.714,0.628,78.43,0,109.5,13.6,0.04,44.6
"2010-03-11 00:43:30",1751406,10.78,81,4.297,0.578,4.812,99.98839,-0.729,0.61,78.39,0,109.5,13.6,0.02,43.0
"2010-03-11 00:44:00",1751407,10.51,82.8,4.549,0.468,4.866,99.97026,-0.775,0.597,78.35,0,109.5,13.6,-0.03,44.8
"2010-03-11 00:44:30",1751408,10.24,80.5,4.542,0.542,4.818,99.9629,-0.794,0.593,78.31,0,109.5,13.6,-0.04,42.5
"2010-03-11 00:45:00",1751409,10.02,81,4.486,0.506,4.82,99.95583,-0.812,0.553,78.3,0,109.5,13.6,-0.06,43.0
"2010-03-11 00:45:30",1751410,9.95,80.8,4.316,0.495,4.959,99.93771,-0.858,0.56,78.3,0,109.5,13.6,-0.11,42.8
"2010-03-11 00:46:00",1751411,9.61,81.9,5.042,0.377,4.826,99.93091,-0.876,0.504,78.31,0,109.5,13.6,-0.13,43.9
"2010-03-11 00:46:30",1751412,9.8,85,3.715,0.689,4.67,99.92355,-0.894,0.495,78.34,0,109.5,13.61,-0.15,47.0
"2010-03-11 00:47:00",1751413,10.28,80.8,3.832,0.451,4.848,99.90004,-0.954,0.462,78.38,0,109.5,13.61,-0.21,42.8
"2010-03-11 00:47:30",1751414,10.25,83.2,3.845,0.579,4.712,99.89778,-0.96,0.441,78.44,0,109.5,13.61,-0.21,45.2
"2010-03-11 00:48:00",1751415,10.38,84.3,3.983,0.47,4.781,99.88928,-0.982,0.422,78.46,0,109.6,13.61,-0.23,46.3
"2010-03-11 00:48:30",1751416,10.04,81.8,4.28,0.49,4.719,99.87173,-1.027,0.402,78.48,0,109.5,13.61,-0.28,43.8
"2010-03-11 00:49:00",1751417,9.78,83.1,3.809,0.571,4.812,99.86379,-1.047,0.373,78.5,0,109.5,13.61,-0.30,45.1
"2010-03-11 00:49:30",1751418,9.84,84.5,3.679,0.533,4.764,99.85049,-1.081,0.346,78.57,0,109.5,13.61,-0.33,46.5
"2010-03-11 00:50:00",1751419,9.5,79.69,3.816,0.531,4.584,99.83463,-1.121,0.307,78.64,0,109.6,13.61,-0.37,41.7
"2010-03-11 00:50:30",1751420,9.43,79.01,3.686,0.586,4.58,99.8301,-1.133,0.299,78.77,0,109.5,13.61,-0.38,41.0
"2010-03-11 00:51:00",1751421,9.45,80.1,4.866,0.441,4.686,99.82642,-1.142,0.278,78.9,0,109.5,13.61,-0.39,42.1
"2010-03-11 00:51:30",1751422,9.35,79.64,3.35,0.688,4.567,99.80293,-1.202,0.241,79.03,0,109.5,13.61,-0.45,41.6
"2010-03-11 00:52:00",1751423,9.32,79.99,4.185,0.381,4.491,99.79613,-1.219,0.212,79.17,0,109.5,13.61,-0.47,42.0
"2010-03-11 00:52:30",1751424,9.03,84.2,4.18,0.469,4.525,99.79244,-1.229,0.209,79.3,0,109.5,13.61,-0.48,46.2
"2010-03-11 00:53:00",1751425,9.53,82.6,4.297,0.607,4.49,99.77206,-1.281,0.18,79.43,0,109.5,13.61,-0.53,44.6
"2010-03-11 00:53:30",1751426,9.94,84.2,3.095,0.578,4.58,99.76214,-1.306,0.146,79.57,0,109.5,13.61,-0.56,46.2
"2010-03-11 00:54:00",1751427,10.18,84.8,4.458,0.46,4.489,99.76214,-1.306,0.119,79.72,0,109.5,13.61,-0.56,46.8
"2010-03-11 00:54:30",1751428,10.08,82.1,5.028,0.537,4.513,99.75365,-1.328,0.105,79.86,0,109.5,13.61,-0.58,44.1
"2010-03-11 00:55:00",1751429,9.71,72.46,4.645,0.334,4.517,99.73496,-1.375,0.075,79.98,0,109.5,13.61,-0.63,34.5
"2010-03-11 00:55:30",1751430,9.91,71.58,3.992,0.528,4.626,99.72816,-1.393,0.054,80.1,0,109.5,13.61,-0.65,33.6
"2010-03-11 00:56:00",1751431,9.44,72.6,4.17,0.548,4.547,99.72619,-1.398,0.027,80.3,0,109.5,13.61,-0.65,34.6
"2010-03-11 00:56:30",1751432,9.66,74.4,3.806,0.641,4.4,99.70665,-1.447,0.009,80.6,0,109.5,13.61,-0.70,36.4
"2010-03-11 00:57:00",1751433,9.76,78.4,4.157,0.521,4.497,99.69419,-1.479,-0.033,80.7,0,109.5,13.61,-0.73,40.4
"2010-03-11 00:57:30",1751434,9.57,77.53,3.108,0.549,4.425,99.69419,-1.479,-0.047,80.9,0,109.5,13.61,-0.73,39.5
"2010-03-11 00:58:00",1751435,9.71,76.86,3.934,0.52,4.377,99.68796,-1.495,-0.068,81,0,109.5,13.6,-0.75,38.9
"2010-03-11 00:58:30",1751436,9.49,77.38,3.977,0.535,4.339,99.66558,-1.552,-0.087,81.1,0,109.5,13.61,-0.81,39.4
"2010-03-11 00:59:00",1751437,9.34,80.4,4.141,0.622,4.33,99.66134,-1.563,-0.096,81.2,0,109.5,13.61,-0.82,42.4
"2010-03-11 00:59:30",1751438,9.02,80.2,4.334,0.372,4.448,99.6602,-1.566,-0.14,81.3,0,109.5,13.61,-0.82,42.2
"2010-03-11 01:00:00",1751439,9.12,78.65,4.659,0.553,4.408,99.6602,-1.566,-0.168,81.4,0,109.5,13.61,-0.82,40.7
"2010-03-11 01:00:30",1751440,9.15,83.3,4.205,0.494,4.354,99.64803,-1.597,-0.155,81.6,0,109.5,13.61,-0.85,45.3
"2010-03-11 01:01:00",1751441,9.27,82.5,3.802,0.479,4.365,99.62765,-1.649,-0.175,81.7,0,109.5,13.61,-0.90,44.5
"2010-03-11 01:01:30",1751442,9.57,82.2,3.412,0.449,4.443,99.62622,-1.652,-0.197,81.8,0,109.5,13.61,-0.91,44.2
"2010-03-11 01:02:00",1751443,9.44,81.3,4.582,0.547,4.296,99.62622,-1.652,-0.211,82,0,109.5,13.62,-0.91,43.3
"2010-03-11 01:02:30",1751444,8.82,77.28,4.004,0.554,4.184,99.62622,-1.652,-0.217,82.1,0,109.5,13.62,-0.91,39.3
"2010-03-11 01:03:00",1751445,9.42,77.43,4.138,0.576,4.159,99.62141,-1.665,-0.257,82.2,0,109.5,13.62,-0.92,39.4
"2010-03-11 01:03:30",1751446,9.93,78.73,3.89,0.263,4.434,99.60726,-1.701,-0.273,82.3,0,109.5,13.62,-0.95,40.7
"2010-03-11 01:04:00",1751447,9.31,80.8,4.478,0.632,4.279,99.60018,-1.719,-0.278,82.4,0,109.5,13.62,-0.97,42.8
"2010-03-11 01:04:30",1751448,9.21,81.4,4.847,0.544,4.249,99.59254,-1.738,-0.286,82.4,0,109.5,13.62,-0.99,43.4
"2010-03-11 01:05:00",1751449,9.17,80.3,5.835,0.343,4.273,99.59225,-1.739,-0.333,82.5,0,109.5,13.62,-0.99,42.3
"2010-03-11 01:05:30",1751450,9.32,78.24,4.106,0.424,4.318,99.59225,-1.739,-0.326,82.5,0,109.5,13.62,-0.99,40.2
"2010-03-11 01:06:00",1751451,9.58,78.08,3.956,0.693,4.143,99.58743,-1.751,-0.342,82.5,0,109.6,13.62,-1.01,40.1
"2010-03-11 01:06:30",1751452,10.3,76.88,3.779,0.569,4.244,99.57413,-1.785,-0.354,82.6,0,109.5,13.62,-1.04,38.9
"2010-03-11 01:07:00",1751453,10.13,78.77,4.241,0.361,4.475,99.56591,-1.806,-0.352,82.6,0,109.5,13.62,-1.06,40.8
"2010-03-11 01:07:30",1751454,9.6,81.8,3.975,0.377,4.683,99.55911,-1.823,-0.379,82.5,0,109.5,13.62,-1.08,43.8
"2010-03-11 01:08:00",1751455,9.98,80.8,4.37,0.591,4.486,99.55996,-1.821,-0.398,82.6,0,109.5,13.62,-1.08,42.8
"2010-03-11 01:08:30",1751456,10.28,78.45,4.263,0.389,4.495,99.56025,-1.82,-0.387,82.6,0,109.5,13.62,-1.07,40.4
"2010-03-11 01:09:00",1751457,9.86,79.28,4.405,0.537,4.43,99.56165,-1.817,-0.429,82.5,0,109.5,13.62,-1.07,41.3
"2010-03-11 01:09:30",1751458,9.5,82,3.585,0.519,4.641,99.56363,-1.812,-0.433,82.5,0,109.5,13.62,-1.07,44.0
"2010-03-11 01:10:00",1751459,9.97,80.6,4.042,0.525,4.442,99.55824,-1.826,-0.453,82.6,0,109.5,13.62,-1.08,42.6
"2010-03-11 01:10:30",1751460,9.77,78.32,4.205,0.553,4.447,99.54748,-1.853,-0.449,82.6,0,109.5,13.62,-1.11,40.3
"2010-03-11 01:11:00",1751461,9.17,77.96,4.51,0.489,4.499,99.54295,-1.865,-0.462,82.5,0,109.5,13.62,-1.12,40.0
"2010-03-11 01:11:30",1751462,8.67,76.81,4.111,0.353,4.402,99.54379,-1.862,-0.457,82.5,0,109.5,13.62,-1.12,38.8
"2010-03-11 01:12:00",1751463,8.57,77.62,5.37,0.436,4.391,99.54208,-1.867,-0.468,82.6,0,109.5,13.62,-1.12,39.6
"2010-03-11 01:12:30",1751464,8.97,80,4.553,0.657,4.188,99.53923,-1.874,-0.474,82.6,0,109.5,13.62,-1.13,42.0
"2010-03-11 01:13:00",1751465,9.68,78.89,4.204,0.331,4.06,99.53838,-1.876,-0.505,82.7,0,109.5,13.62,-1.13,40.9
"2010-03-11 01:13:30",1751466,9.87,77.74,3.917,0.328,4.369,99.53867,-1.875,-0.509,82.7,0,109.5,13.62,-1.13,39.7
"2010-03-11 01:14:00",1751467,9.07,76.09,5.066,0.536,4.314,99.54008,-1.872,-0.472,82.7,0,109.5,13.62,-1.13,38.1
"2010-03-11 01:14:30",1751468,8.76,78.67,3.828,0.572,4.166,99.54064,-1.87,-0.498,82.7,0,109.5,13.62,-1.13,40.7
"2010-03-11 01:15:00",1751469,9.13,78.14,4.212,0.4,4.122,99.54092,-1.87,-0.523,82.8,0,109.5,13.62,-1.12,40.1
"2010-03-11 01:15:30",1751470,9.29,77.47,3.775,0.493,4.376,99.53921,-1.874,-0.517,82.8,0,109.5,13.62,-1.13,39.5
"2010-03-11 01:16:00",1751471,9.11,77.24,4.396,0.478,4.089,99.53297,-1.89,-0.528,82.8,0,109.5,13.62,-1.14,39.2
"2010-03-11 01:16:30",1751472,8.93,77.95,3.861,0.378,4.058,99.52618,-1.907,-0.541,82.8,0,109.5,13.62,-1.16,39.9
"2010-03-11 01:17:00",1751473,8.74,77.03,4.243,0.538,4.304,99.52136,-1.92,-0.544,82.9,0,109.5,13.62,-1.17,39.0
"2010-03-11 01:17:30",1751474,8.89,77.75,3.401,0.466,4.17,99.51853,-1.927,-0.545,82.9,0,109.5,13.62,-1.18,39.8
"2010-03-11 01:18:00",1751475,8.9,78.32,4.451,0.527,3.963,99.51456,-1.937,-0.554,82.9,0,109.5,13.62,-1.19,40.3
"2010-03-11 01:18:30",1751476,8.74,77.29,4.127,0.531,4.06,99.51455,-1.937,-0.544,82.9,0,109.5,13.62,-1.19,39.3
"2010-03-11 01:19:00",1751477,8.64,79.97,5.086,0.507,4.04,99.51398,-1.938,-0.59,83,0,109.5,13.63,-1.19,42.0
"2010-03-11 01:19:30",1751478,8.27,78.75,3.413,0.533,3.995,99.51398,-1.938,-0.587,83,0,109.5,13.63,-1.19,40.8
"2010-03-11 01:20:00",1751479,8.93,77.69,4.503,0.305,4.078,99.51511,-1.936,-0.565,83.1,0,109.5,13.63,-1.19,39.7
"2010-03-11 01:20:30",1751480,9.05,76.92,4.105,0.591,3.923,99.51482,-1.936,-0.564,83.1,0,109.5,13.63,-1.19,38.9
"2010-03-11 01:21:00",1751481,8.93,79.53,4.018,0.51,3.983,99.51596,-1.933,-0.595,83.1,0,109.5,13.63,-1.19,41.5
"2010-03-11 01:21:30",1751482,9.17,78.33,4.142,0.601,4.147,99.51567,-1.934,-0.586,83.1,0,109.5,13.63,-1.19,40.3
"2010-03-11 01:22:00",1751483,9.26,71.38,4.347,0.363,4.007,99.51624,-1.933,-0.588,83.2,0,109.5,13.63,-1.19,33.4
"2010-03-11 01:22:30",1751484,9.3,74.73,4.997,0.339,4.146,99.51596,-1.933,-0.583,83.2,0,109.5,13.63,-1.19,36.7
"2010-03-11 01:23:00",1751485,9.11,75.76,4.446,0.376,4.147,99.51681,-1.931,-0.587,83.3,0,109.5,13.63,-1.19,37.8
"2010-03-11 01:23:30",1751486,9.37,74.32,4.786,0.391,4.3,99.51652,-1.932,-0.615,83.3,0,109.5,13.63,-1.19,36.3
"2010-03-11 01:24:00",1751487,8.93,77.29,4.777,0.35,4.173,99.51681,-1.931,-0.6,83.4,0,109.5,13.63,-1.19,39.3
"2010-03-11 01:24:30",1751488,9.29,72.21,4.382,0.513,4.152,99.51596,-1.933,-0.586,83.5,0,109.5,13.63,-1.19,34.2
"2010-03-11 01:25:00",1751489,9.89,71.62,4.264,0.427,4.173,99.51624,-1.933,-0.601,83.5,0,109.5,13.63,-1.19,33.6
"2010-03-11 01:25:30",1751490,9.8,75.39,3.201,0.529,4.263,99.51624,-1.933,-0.604,83.6,0,109.5,13.63,-1.19,37.4
"2010-03-11 01:26:00",1751491,9.73,77.84,4.553,0.579,4.433,99.51624,-1.933,-0.607,83.6,0,109.5,13.63,-1.19,39.8
"2010-03-11 01:26:30",1751492,9.92,75.27,4.135,0.517,4.391,99.51256,-1.942,-0.621,83.7,0,109.5,13.63,-1.20,37.3
"2010-03-11 01:27:00",1751493,10.13,74.06,3.752,0.346,4.468,99.50858,-1.952,-0.619,83.6,0,109.5,13.63,-1.21,36.1
"2010-03-11 01:27:30",1751494,10.38,73.69,3.16,0.352,4.518,99.50631,-1.958,-0.635,83.4,0,109.5,13.63,-1.21,35.7
"2010-03-11 01:28:00",1751495,10.44,72.78,3.721,0.316,4.534,99.50432,-1.963,-0.633,83.3,0,109.5,13.63,-1.22,34.8
"2010-03-11 01:28:30",1751496,10.45,73.09,4.217,0.545,4.515,99.50375,-1.964,-0.622,83.1,0,109.5,13.63,-1.22,35.1
"2010-03-11 01:29:00",1751497,10.51,75.18,3.739,0.509,4.702,99.50516,-1.961,-0.655,83,0,109.5,13.63,-1.22,37.2
"2010-03-11 01:29:30",1751498,10.29,76.13,3.369,0.541,4.712,99.50319,-1.966,-0.654,82.8,0,109.4,13.62,-1.22,38.1
"2010-03-11 01:30:00",1751499,10.25,73.88,3.818,0.512,4.637,99.50149,-1.97,-0.671,82.7,0,109.5,13.62,-1.23,35.9
"2010-03-11 01:30:30",1751500,10.17,75.69,4.28,0.398,4.666,99.50318,-1.966,-0.659,82.6,0,109.5,13.62,-1.22,37.7
"2010-03-11 01:31:00",1751501,10.51,76.51,4.111,0.282,4.777,99.50375,-1.964,-0.639,82.6,0,109.4,13.62,-1.22,38.5
"2010-03-11 01:31:30",1751502,10.47,75.99,3.844,0.301,4.885,99.506,-1.959,-0.669,82.5,0,109.5,13.62,-1.21,38.0
"2010-03-11 01:32:00",1751503,10.15,76.92,4.03,0.696,4.707,99.50516,-1.961,-0.671,82.4,0,109.5,13.62,-1.22,38.9
"2010-03-11 01:32:30",1751504,10.31,78.64,4.333,0.419,4.555,99.50629,-1.958,-0.672,82.4,0,109.5,13.62,-1.21,40.6
"2010-03-11 01:33:00",1751505,10.22,78.1,4.461,0.536,4.773,99.50685,-1.957,-0.677,82.4,0,109.4,13.62,-1.21,40.1
"2010-03-11 01:33:30",1751506,10.15,79.3,3.329,0.482,4.796,99.5077,-1.954,-0.678,82.3,0,109.5,13.62,-1.21,41.3
"2010-03-11 01:34:00",1751507,10.29,78.3,3.814,0.48,4.671,99.50713,-1.956,-0.676,82.3,0,109.5,13.63,-1.21,40.3
"2010-03-11 01:34:30",1751508,9.8,76.24,4.672,0.607,4.51,99.506,-1.959,-0.645,82.3,0,109.4,13.63,-1.21,38.2
"2010-03-11 01:35:00",1751509,9.98,76.42,4.711,0.4,4.567,99.50798,-1.954,-0.651,82.2,0,109.4,13.63,-1.21,38.4
"2010-03-11 01:35:30",1751510,9.85,78.51,4.086,0.386,4.692,99.5094,-1.95,-0.667,82.3,0,109.5,13.63,-1.20,40.5
"2010-03-11 01:36:00",1751511,9.99,80.4,4.009,0.501,4.436,99.50968,-1.949,-0.645,82.3,0,109.5,13.63,-1.20,42.4
"2010-03-11 01:36:30",1751512,10.05,77.95,4.007,0.565,4.431,99.50685,-1.957,-0.659,82.3,0,109.5,13.63,-1.21,39.9
"2010-03-11 01:37:00",1751513,10.13,76.37,3.975,0.543,4.392,99.50771,-1.954,-0.668,82.3,0,109.4,13.63,-1.21,38.4
"2010-03-11 01:37:30",1751514,10.06,79.65,3.458,0.61,4.542,99.50685,-1.957,-0.663,82.4,0,109.4,13.63,-1.21,41.7
"2010-03-11 01:38:00",1751515,9.96,81.3,4.048,0.475,4.457,99.50374,-1.964,-0.654,82.4,0,109.4,13.63,-1.22,43.3
"2010-03-11 01:38:30",1751516,9.78,80.1,4.281,0.386,4.396,99.50147,-1.97,-0.661,82.4,0,109.4,13.63,-1.23,42.1
"2010-03-11 01:39:00",1751517,9.41,83.2,4.478,0.445,4.503,99.50119,-1.971,-0.646,82.4,0,109.4,13.63,-1.23,45.2
"2010-03-11 01:39:30",1751518,8.69,82.6,3.592,0.549,4.53,99.4992,-1.976,-0.646,82.4,0,109.4,13.63,-1.23,44.6
"2010-03-11 01:40:00",1751519,9.86,79.48,4.498,0.584,4.237,99.49722,-1.981,-0.659,82.4,0,109.5,13.63,-1.24,41.5
"2010-03-11 01:40:30",1751520,9.53,81.2,4.614,0.497,4.233,99.49666,-1.983,-0.666,82.4,0,109.4,13.63,-1.24,43.2
"2010-03-11 01:41:00",1751521,8.34,83,4.675,0.876,4.253,99.49155,-1.996,-0.66,82.3,0,109.4,13.63,-1.25,45.0
"2010-03-11 01:41:30",1751522,9.58,80.4,3.12,0.596,4.16,99.49071,-1.998,-0.639,82.2,0,109.4,13.63,-1.25,42.4
"2010-03-11 01:42:00",1751523,9.46,81.1,5.935,0.66,4.224,99.49014,-1.999,-0.664,82.1,0,109.5,13.63,-1.25,43.1
"2010-03-11 01:42:30",1751524,8.94,78.89,4.852,0.703,4.183,99.49014,-1.999,-0.65,82,0,109.4,13.63,-1.25,40.9
"2010-03-11 01:43:00",1751525,9.48,73.84,5.054,0.897,4.157,99.49014,-1.999,-0.677,81.9,0,109.4,13.63,-1.25,35.8
"2010-03-11 01:43:30",1751526,9.93,76.99,3.676,0.33,4.259,99.49014,-1.999,-0.66,81.9,0,109.4,13.63,-1.25,39.0
"2010-03-11 01:44:00",1751527,10.7,76.85,5.363,0.381,4.292,99.49014,-1.999,-0.662,81.7,0,109.5,13.63,-1.25,38.8
"2010-03-11 01:44:30",1751528,9.93,83.6,6.177,0.518,4.511,99.49014,-1.999,-0.677,81.5,0,109.4,13.63,-1.25,45.6
"2010-03-11 01:45:00",1751529,10.38,84.7,5.097,0.374,4.523,99.49014,-1.999,-0.683,81.4,0,109.4,13.63,-1.25,46.7
"2010-03-11 01:45:30",1751530,9.87,82.8,4.327,0.579,4.466,99.49014,-1.999,-0.687,81.3,0,109.4,13.63,-1.25,44.8
"2010-03-11 01:46:00",1751531,9.8,83.8,7.338,0.572,4.391,99.49014,-1.999,-0.675,81.2,0,109.4,13.63,-1.25,45.8
"2010-03-11 01:46:30",1751532,9.91,80.5,4.233,0.678,4.471,99.49014,-1.999,-0.683,81.1,0,109.4,13.63,-1.25,42.5
"2010-03-11 01:47:00",1751533,10.02,76.71,4.163,0.58,4.199,99.48985,-2,-0.711,80.9,0,109.4,13.63,-1.25,38.7
"2010-03-11 01:47:30",1751534,10.25,75.71,3.454,0.57,4.475,99.48985,-2,-0.694,80.6,0,109.4,13.63,-1.25,37.7
"2010-03-11 01:48:00",1751535,9.98,79.81,5.249,0.271,4.595,99.48929,-2.001,-0.714,80.4,0,109.4,13.63,-1.26,41.8